Wind_Speed
46 45 43 41 44 44 44 45 46 45 44 43 43 40 37 33 32 33 33 31 31 29 27 27 28 28 25 20 20 21 22 23 22 17 11 8 8 8 9 11 13 14 13 15 17 20 23 25 24 23 22 21 21 21 19 18 18 18 18 18 19 19 21
45 43 43 43 45 45 46 47 47 46 47 46 45 42 38 36 35 36 35 30 29 29 27 25 25 28 28 24 21 20 21 24 22 17 12 10 11 11 11 13 15 14 14 17 18 18 18 19 21 21 20 20 19 18 17 17 18 18 18 19 19 20 21
44 43 44 46 47 47 48 48 46 48 51 50 48 44 40 40 40 40 41 38 36 36 34 29 26 27 30 29 25 21 21 22 20 15 14 14 15 14 13 15 16 15 15 17 17 17 16 16 16 16 17 17 16 15 16 17 18 19 20 21 21 22 23
44 45 47 48 48 49 49 47 45 47 48 47 45 44 43 43 44 45 47 47 44 40 39 37 35 35 35 32 25 19 17 16 14 14 16 18 18 16 14 16 18 17 16 15 14 14 14 15 16 15 15 15 15 16 16 17 18 20 22 23 24 25 26
46 48 49 47 46 48 48 47 46 45 45 45 41 42 46 47 47 48 49 47 41 34 33 33 32 32 29 24 21 20 17 13 12 15 18 20 20 17 16 19 19 18 16 15 14 14 13 13 14 15 16 16 17 17 17 18 19 21 23 24 26 28 30
47 47 48 45 43 45 46 46 47 45 45 46 44 45 48 49 48 47 44 41 35 29 29 28 26 25 22 18 19 20 18 15 15 17 20 21 19 17 18 20 19 17 17 17 17 15 13 12 12 13 15 16 17 18 19 20 21 22 24 27 29 31 32
45 45 47 46 44 43 44 44 45 44 44 45 46 48 49 47 47 45 41 39 35 30 30 29 25 22 19 19 21 23 22 21 19 20 21 20 18 18 20 19 16 15 15 16 16 14 12 12 12 13 14 16 17 19 20 22 23 24 27 29 31 33 34
43 44 46 47 43 42 43 42 41 43 44 43 43 44 43 43 44 44 41 40 37 31 29 29 25 21 20 21 23 25 26 25 24 23 22 19 19 19 17 15 14 15 15 14 13 11 11 12 13 14 15 16 17 19 20 22 24 27 30 32 33 34 35
46 48 48 48 44 42 41 38 36 37 39 40 41 40 38 39 40 40 40 40 36 28 24 24 22 20 20 22 23 25 25 26 26 26 22 20 20 19 16 16 16 16 16 15 13 12 13 14 15 16 16 16 17 18 20 23 26 29 31 33 34 35 37
49 51 51 47 43 41 40 38 34 33 33 36 40 40 38 38 37 36 37 37 34 28 23 22 22 22 22 23 22 22 22 22 22 22 20 20 21 18 17 19 18 16 16 15 16 16 17 16 17 17 17 17 18 19 22 24 27 30 33 35 36 36 38
47 47 45 42 39 40 39 36 34 32 32 35 40 42 40 37 35 34 35 34 33 32 27 25 24 24 24 23 21 20 18 17 18 19 20 21 21 19 21 22 20 18 17 18 20 21 21 20 20 20 19 20 22 24 26 28 30 32 35 36 37 38 40
43 42 41 39 39 40 38 35 33 33 33 36 41 43 40 36 34 32 32 33 35 35 31 27 26 26 24 22 21 19 17 17 18 19 21 23 23 22 23 24 23 21 20 21 22 23 24 23 23 23 23 24 26 27 28 30 32 34 37 39 39 39 42
41 43 42 41 40 40 37 35 34 34 35 39 43 43 39 37 36 31 29 33 36 35 33 29 26 25 22 20 21 21 20 20 20 21 23 24 24 24 25 26 25 24 23 23 24 24 23 22 22 23 25 26 27 27 29 32 34 36 39 41 41 40 42
39 45 45 43 42 40 38 36 35 34 36 39 41 41 39 38 38 34 32 35 35 34 32 29 27 25 22 22 24 24 25 25 23 23 25 25 26 27 28 28 27 26 26 26 25 23 22 22 24 26 27 29 29 30 33 36 38 39 40 41 40 40 41
38 46 46 44 41 39 37 37 35 33 33 35 38 40 39 39 40 39 38 39 36 33 34 33 31 29 27 28 29 29 29 27 25 25 26 27 29 30 31 31 30 29 30 30 27 23 23 25 28 29 30 31 32 34 38 42 43 43 41 39 38 38 40
37 45 49 45 39 37 38 39 36 32 32 34 37 39 40 40 40 40 41 43 40 36 37 38 36 34 33 32 32 32 32 29 26 27 29 30 32 33 33 33 32 33 34 33 29 25 26 28 31 32 33 34 35 37 41 43 44 44 42 40 38 39 40
36 43 49 45 37 36 40 41 39 36 35 36 37 38 40 39 38 37 38 40 40 39 40 41 39 37 35 35 35 34 31 28 27 29 31 32 33 33 34 34 34 35 37 36 32 30 31 33 34 35 35 35 36 38 41 42 43 44 43 41 40 40 41
34 40 46 44 41 40 38 36 38 39 39 39 39 40 41 40 39 37 36 37 38 39 41 42 41 39 38 37 36 33 29 28 30 32 34 35 34 33 34 35 36 37 39 38 34 34 37 38 38 38 35 34 36 39 41 43 43 44 43 42 41 41 42
34 37 41 44 47 47 39 34 36 39 42 45 45 43 44 43 42 40 38 38 40 39 39 40 41 41 41 40 38 37 34 33 33 35 37 36 34 34 36 37 37 38 40 39 37 38 41 42 42 41 37 36 39 41 43 43 44 44 44 44 43 43 43
35 37 38 41 46 47 43 41 41 41 44 48 50 48 46 46 45 43 41 42 43 43 42 41 39 40 40 40 39 40 41 40 39 40 39 37 36 37 38 38 38 38 39 39 39 41 43 43 44 43 39 38 41 43 44 44 44 45 45 45 44 43 43
37 37 36 38 42 45 46 46 47 46 46 49 53 53 50 47 45 44 42 41 42 43 44 43 40 38 37 36 36 37 39 40 41 41 40 39 40 40 38 38 38 39 38 37 39 42 43 43 44 43 42 43 46 47 46 45 45 45 44 45 44 42 42
39 38 36 37 42 46 48 48 49 49 49 51 54 55 54 52 47 45 44 42 41 41 41 42 42 39 37 37 36 36 37 37 38 39 39 39 40 40 40 39 40 40 37 37 40 44 44 44 45 45 47 50 51 49 47 45 45 45 45 45 44 43 43
41 41 39 37 39 44 47 48 50 51 51 50 48 48 51 52 49 47 45 42 43 44 41 40 41 40 39 40 40 40 38 38 38 38 38 40 41 42 43 44 43 41 39 40 44 45 45 46 47 47 50 52 50 47 45 45 45 46 46 46 45 45 44
42 43 44 43 41 41 42 43 45 48 50 49 44 42 45 47 46 45 43 40 41 43 40 37 37 39 40 40 41 40 38 37 37 37 38 40 42 43 45 45 43 41 42 45 46 46 47 49 49 51 53 51 47 45 45 45 47 48 48 47 46 45 44
42 41 44 47 47 46 43 42 42 43 45 45 44 44 45 45 42 40 39 37 37 38 36 36 37 39 40 41 41 41 40 39 40 40 41 43 43 44 44 44 43 44 45 45 46 47 48 49 50 51 51 47 45 45 46 47 48 48 47 46 45 43 42
44 43 43 45 47 49 48 47 46 46 43 41 41 42 44 45 41 37 35 35 36 36 37 38 39 40 40 39 39 39 40 41 43 44 46 47 46 45 44 45 46 48 48 48 49 50 49 49 49 47 44 43 43 45 47 48 48 46 45 44 43 42 42
45 46 46 46 45 46 47 48 47 48 47 44 41 40 41 43 43 42 41 40 39 40 41 40 41 42 43 42 41 40 40 42 44 46 48 50 49 49 49 50 52 54 55 55 55 54 52 49 47 44 42 43 44 46 48 48 46 44 42 42 41 41 42
47 45 46 48 48 47 46 46 46 46 48 48 46 43 42 43 45 46 46 45 44 44 45 45 46 46 47 47 46 45 44 46 47 48 49 51 53 55 56 58 61 59 55 52 51 51 49 47 44 43 44 46 46 47 46 44 42 41 41 41 41 41 42
51 48 46 48 50 50 48 46 45 45 48 50 51 50 48 47 47 48 48 49 49 49 49 50 49 48 49 50 51 51 50 50 50 50 51 53 55 57 58 60 59 52 43 41 43 45 45 45 44 44 45 45 45 43 42 41 40 40 40 40 40 41 42
52 53 52 52 52 52 52 50 47 45 46 48 50 52 53 53 53 53 52 52 54 54 53 54 54 53 53 53 52 51 50 48 48 49 52 54 56 56 53 51 47 40 36 37 40 41 42 44 44 44 43 42 40 39 38 39 39 39 39 40 41 42 43
47 50 52 53 52 51 50 50 48 45 45 46 47 48 49 50 52 54 55 55 57 58 59 59 60 60 59 58 55 53 51 50 50 51 53 54 53 51 48 43 39 36 36 37 39 39 40 41 41 41 40 38 38 37 37 37 38 38 39 41 41 42 43
47 47 48 48 49 49 48 48 45 42 43 46 48 47 46 46 48 49 50 52 54 55 58 61 62 62 62 60 57 55 53 51 50 50 49 47 44 42 40 37 35 34 35 36 37 38 39 40 40 39 38 38 38 38 38 38 38 39 41 42 42 43 44
49 49 48 46 46 47 49 48 46 43 41 42 44 45 44 43 43 43 42 42 43 46 51 56 57 57 57 55 52 50 49 47 46 45 43 40 38 37 36 35 34 35 36 37 39 39 39 39 39 39 38 39 38 38 39 39 39 40 42 42 41 40 37
50 50 48 47 45 44 42 41 41 42 42 40 39 39 38 37 38 39 40 40 41 44 48 49 49 48 47 47 47 46 44 42 40 39 37 35 35 36 36 36 36 36 37 38 38 38 38 38 38 39 39 39 39 39 40 40 40 43 44 42 38 34 30
47 47 44 42 42 42 40 37 35 35 36 35 35 34 34 33 34 36 37 37 39 41 40 39 39 38 37 38 39 40 38 37 36 35 35 36 36 36 35 35 35 35 36 36 37 38 38 39 39 40 40 40 40 41 41 41 42 44 43 41 39 37 37
43 43 39 33 31 32 34 34 32 30 29 29 29 29 30 31 32 34 34 35 36 37 35 35 35 35 35 35 35 36 35 35 35 35 35 35 34 32 31 32 33 34 35 36 38 39 40 40 40 40 41 41 42 42 43 43 44 45 45 44 43 43 44
38 39 38 34 29 27 27 28 29 29 29 29 30 30 31 32 33 34 35 37 38 39 38 37 35 34 33 32 32 32 32 31 30 31 31 31 32 32 32 33 35 36 37 38 39 40 41 41 41 41 42 43 44 45 46 46 46 46 47 47 47 47 46
Wind_Direction
211 210 207 200 203 208 206 206 211 216 217 218 221 227 231 237 244 247 248 252 257 260 263 265 266 269 272 272 269 269 269 271 274 277 286 300 309 311 306 309 314 314 311 300 289 282 275 271 268 267 267 269 272 275 279 284 288 290 292 292 293 294 295
213 210 209 203 203 206 207 210 214 215 217 219 221 224 231 236 238 241 243 244 249 253 255 259 266 269 268 266 264 261 260 263 266 271 279 291 300 297 298 310 314 317 320 313 304 296 284 273 266 265 266 268 274 279 281 283 285 288 291 293 294 294 294
214 210 210 207 204 205 209 215 217 217 218 219 219 221 229 234 234 236 238 239 241 244 246 249 256 262 263 264 262 257 255 257 261 269 279 284 291 292 299 311 315 316 315 311 309 304 292 281 272 268 268 270 273 275 274 277 282 287 293 296 297 295 292
214 209 210 210 207 206 209 213 215 215 216 219 222 226 228 230 232 233 235 238 240 244 247 249 252 257 261 262 259 255 253 255 261 271 276 281 288 293 300 309 313 312 309 308 310 308 298 283 274 270 272 273 272 271 272 277 283 290 296 299 297 294 291
213 210 212 213 210 208 209 210 210 210 212 217 224 230 230 228 230 233 236 241 247 249 248 249 253 255 257 259 259 258 252 246 251 260 266 275 284 291 299 306 309 307 307 308 308 308 299 282 272 269 270 272 273 275 279 283 288 293 297 296 294 292 290
214 213 214 213 210 209 211 211 209 209 212 217 223 229 230 228 230 235 240 248 255 250 243 248 253 249 247 255 266 268 261 250 247 253 262 271 280 290 297 300 304 306 309 310 309 306 294 280 274 271 269 272 276 280 285 288 291 295 295 293 292 291 290
215 214 213 213 209 209 212 215 214 213 215 220 224 227 230 231 231 235 243 252 254 247 246 251 252 248 248 258 267 271 269 262 256 256 262 270 280 288 292 296 304 308 308 310 311 304 286 274 271 270 270 273 276 280 285 288 293 294 293 292 292 292 295
213 213 213 214 211 209 212 216 217 217 219 223 226 228 233 237 235 237 244 252 255 256 256 254 251 252 256 259 262 266 267 263 260 261 265 273 279 283 291 302 307 304 302 306 313 308 289 276 267 264 266 268 273 280 285 289 293 293 292 293 294 297 298
208 210 210 211 211 209 210 211 214 219 223 226 228 228 231 235 235 235 241 249 255 260 259 253 252 256 257 258 259 260 262 262 260 262 267 275 279 283 300 312 309 307 304 301 304 305 300 289 274 268 268 270 276 282 286 291 293 293 294 296 299 301 299
206 209 210 211 209 207 207 208 210 217 224 226 225 223 226 231 232 233 236 243 249 249 245 245 249 250 249 253 257 259 262 263 260 263 271 279 282 290 307 311 311 316 314 307 308 309 305 295 282 275 274 277 283 286 288 291 292 295 298 299 301 301 296
211 212 213 212 208 206 209 210 209 213 221 223 220 220 226 234 237 238 239 242 245 247 246 247 249 250 252 257 264 269 273 272 270 273 278 282 285 294 302 304 306 313 312 309 311 311 304 296 289 285 284 288 292 292 292 293 295 298 300 299 299 298 293
213 211 211 208 205 206 210 212 209 211 218 220 220 222 230 235 237 240 241 241 245 250 253 253 253 256 262 267 270 273 273 273 276 278 278 281 286 293 297 299 302 307 309 307 308 307 301 293 290 290 291 293 294 294 294 296 298 300 299 298 298 297 297
213 207 206 204 204 206 209 212 211 212 217 220 221 226 233 237 239 243 243 244 248 252 255 256 258 263 269 270 269 268 267 270 274 276 278 282 289 294 298 300 301 304 306 306 305 303 297 292 293 295 293 292 293 295 299 301 301 299 297 298 299 301 303
214 207 205 204 205 208 210 212 212 211 216 221 224 229 235 238 242 246 246 248 250 249 251 257 262 265 266 265 267 268 269 272 275 277 281 286 291 295 298 299 300 302 303 304 303 301 298 299 302 301 295 293 293 298 302 305 304 301 299 300 301 303 305
214 208 207 205 205 210 212 211 211 211 213 220 225 230 234 237 241 244 244 247 248 244 245 251 255 258 260 264 269 273 274 276 276 277 282 287 289 291 293 294 297 300 302 303 300 297 299 301 301 298 295 294 296 300 303 305 305 304 303 303 302 303 304
213 207 207 207 208 213 215 211 208 209 212 219 225 229 232 235 239 243 244 244 243 242 245 250 252 255 259 263 266 270 275 277 276 277 281 283 283 285 288 292 296 298 301 301 298 296 300 301 301 299 298 298 299 301 303 303 303 303 304 305 305 305 304
212 205 207 209 209 215 217 210 206 209 214 219 226 230 231 233 236 240 243 243 241 240 242 246 251 255 258 260 263 269 275 276 274 275 277 277 278 283 287 290 293 296 298 298 297 300 305 305 304 304 301 299 299 300 302 303 303 303 304 305 306 306 306
210 204 207 209 210 216 220 214 209 211 216 221 226 229 230 231 234 237 240 241 240 239 240 244 250 256 257 258 262 266 266 264 264 266 269 273 277 283 286 288 291 294 295 295 296 302 306 305 303 302 301 300 301 303 304 303 302 302 303 304 305 304 305
209 205 206 210 215 221 227 225 218 216 219 222 226 230 232 231 233 235 235 235 235 236 238 242 248 252 253 255 259 259 256 256 259 263 269 274 278 281 283 286 289 290 290 291 294 300 304 305 303 300 299 301 304 305 304 302 301 301 301 302 302 302 303
210 208 208 213 220 224 228 231 227 224 225 224 224 227 229 229 229 230 230 230 231 232 234 238 242 246 249 252 255 255 256 259 263 266 271 275 277 278 280 283 285 284 285 287 291 296 301 303 302 300 299 301 305 304 301 300 299 299 299 300 301 302 303
213 211 212 218 223 224 226 230 230 227 226 225 224 224 224 224 226 227 229 231 232 231 233 236 239 242 245 250 252 254 258 261 263 267 272 276 278 278 277 277 276 277 279 281 286 292 297 298 299 299 299 300 302 301 298 296 297 297 298 299 300 301 301
214 215 217 222 224 225 226 229 232 231 228 226 226 226 223 220 220 223 228 233 233 233 233 234 235 237 240 245 250 254 258 261 264 269 272 274 274 272 270 269 270 272 275 277 282 288 292 293 294 297 299 299 299 297 294 294 295 296 296 297 298 298 299
212 215 217 220 222 224 226 228 231 234 235 231 229 229 227 224 221 220 221 225 227 229 233 235 235 236 239 245 251 256 260 265 268 270 271 271 271 270 270 270 269 270 273 278 282 287 290 291 292 293 298 299 296 292 290 292 293 294 294 295 295 296 298
209 213 216 219 221 224 225 227 227 231 235 235 232 231 231 232 235 233 230 230 232 232 235 240 242 242 243 246 251 256 261 266 268 269 269 270 271 273 274 273 270 271 276 280 283 286 287 289 291 292 295 295 290 286 288 290 291 293 293 293 294 296 298
207 211 215 219 224 228 229 231 232 232 235 237 235 233 235 239 245 246 244 247 249 246 245 248 250 249 248 247 250 254 258 262 264 265 267 268 269 270 271 273 273 274 277 279 282 285 286 289 292 293 291 287 282 282 285 288 290 291 292 293 294 296 299
206 211 215 217 223 230 232 233 236 238 239 240 237 236 238 241 243 244 244 247 248 247 247 248 250 251 250 249 252 255 258 260 261 262 264 265 268 269 270 271 273 274 276 278 280 283 286 289 291 290 284 279 278 280 283 286 288 290 290 292 294 295 297
206 209 214 217 219 226 230 233 236 240 241 242 240 238 238 239 240 241 242 243 244 245 246 248 250 251 250 250 252 255 259 262 262 262 263 264 267 269 270 271 273 274 275 276 278 281 285 286 285 283 280 278 278 280 281 284 286 287 288 290 292 293 294
204 206 211 216 219 224 229 233 235 238 241 242 241 240 239 238 239 240 240 242 243 245 247 249 250 251 251 251 252 253 258 262 264 265 266 266 268 269 271 274 274 273 273 274 276 280 282 281 279 279 279 279 278 279 280 282 283 285 286 288 290 291 293
201 205 209 215 219 224 229 234 236 237 240 242 241 242 242 243 243 243 242 242 243 245 248 251 253 255 255 255 255 255 259 263 267 269 271 272 272 273 273 274 273 271 271 273 276 278 279 279 278 279 279 279 278 278 278 279 281 283 285 287 289 291 294
206 208 213 217 220 224 228 232 234 235 238 242 243 244 245 246 246 246 247 247 246 247 249 252 254 256 258 259 260 259 261 265 269 272 274 275 274 274 274 272 271 270 272 274 275 276 277 278 278 279 278 278 278 277 278 279 281 284 286 288 290 292 294
218 214 215 216 217 221 225 229 232 233 235 238 242 244 246 246 247 248 248 249 250 250 251 253 255 256 258 261 263 263 264 268 271 273 275 274 273 271 269 270 271 272 273 273 273 274 276 277 278 278 278 279 279 280 280 281 283 284 286 288 291 293 295
235 230 226 220 215 216 220 223 225 229 232 235 238 241 245 248 250 251 252 253 255 256 256 257 258 258 259 262 265 265 265 266 267 269 271 271 268 265 264 266 270 271 272 272 273 274 274 275 276 277 278 279 281 281 282 283 285 287 288 290 294 296 297
243 243 241 234 224 220 221 222 222 225 232 238 240 242 245 249 252 255 258 262 264 264 263 261 261 261 261 262 263 264 263 263 264 267 269 268 265 264 265 267 268 270 271 273 274 274 274 274 274 276 277 279 280 281 282 284 286 289 290 293 297 301 301
244 246 246 244 239 235 235 235 232 232 237 244 247 249 251 254 256 259 263 265 265 264 263 263 263 261 259 257 257 258 259 261 265 267 268 268 268 268 268 269 270 271 273 273 273 273 273 273 274 276 277 279 280 281 282 284 287 289 290 293 296 297 297
239 242 244 244 243 241 243 245 244 244 247 250 252 254 256 257 259 261 263 263 262 260 260 263 264 264 262 261 260 261 263 266 269 270 270 271 271 270 269 269 270 271 272 272 272 273 273 274 275 277 278 278 279 280 282 285 287 288 289 290 290 287 285
229 232 234 236 236 236 238 241 243 245 247 249 250 253 254 254 255 257 258 259 260 261 262 267 271 273 274 273 271 269 268 270 271 271 272 273 273 272 271 270 271 271 271 271 272 273 274 274 275 277 278 279 280 282 284 286 287 287 288 289 289 286 284
223 226 228 231 234 237 240 242 243 244 245 246 250 254 257 258 259 261 261 262 264 267 269 273 276 278 278 276 273 269 267 268 269 270 272 272 272 271 270 270 270 270 270 271 271 272 273 274 275 277 279 281 283 284 286 286 286 287 287 288 288 288 287
Height
5857 5859 5863 5867 5868 5870 5873 5874 5874 5877 5881 5883 5882 5882 5882 5883 5882 5881 5882 5882 5883 5886 5888 5891 5892 5894 5896 5898 5899 5901 5901 5901 5902 5902 5903 5903 5902 5902 5902 5901 5901 5900 5900 5899 5899 5898 5898 5897 5898 5898 5898 5898 5898 5898 5899 5899 5899 5898 5897 5896 5896 5895 5894
5854 5858 5862 5864 5864 5866 5869 5870 5872 5877 5879 5879 5878 5879 5879 5879 5879 5879 5879 5881 5882 5883 5886 5888 5890 5892 5894 5895 5897 5898 5899 5899 5900 5901 5901 5901 5901 5901 5901 5900 5900 5899 5898 5897 5896 5895 5895 5894 5895 5895 5895 5895 5896 5896 5897 5897 5896 5895 5894 5893 5893 5892 5891
5852 5855 5858 5858 5859 5862 5865 5867 5871 5874 5873 5873 5874 5874 5875 5875 5876 5876 5877 5879 5880 5881 5883 5887 5889 5890 5891 5893 5894 5895 5896 5897 5898 5899 5899 5899 5900 5900 5900 5899 5898 5898 5897 5896 5895 5893 5892 5892 5892 5892 5893 5893 5893 5894 5894 5894 5893 5892 5891 5891 5890 5889 5888
5847 5849 5849 5851 5854 5857 5860 5863 5866 5868 5869 5871 5872 5872 5872 5873 5873 5874 5875 5876 5877 5880 5882 5885 5888 5889 5890 5891 5892 5893 5894 5895 5896 5897 5897 5897 5898 5898 5898 5897 5896 5896 5896 5895 5893 5892 5891 5890 5890 5890 5891 5891 5891 5891 5891 5891 5891 5890 5889 5888 5887 5885 5884
5840 5841 5843 5847 5852 5854 5856 5858 5860 5862 5864 5866 5868 5869 5869 5870 5871 5871 5872 5873 5875 5880 5882 5884 5886 5887 5888 5888 5889 5890 5891 5893 5894 5895 5895 5895 5895 5896 5895 5895 5894 5894 5893 5892 5892 5890 5889 5889 5889 5889 5889 5889 5888 5888 5889 5889 5888 5887 5886 5885 5884 5882 5880
5833 5838 5842 5847 5851 5852 5853 5855 5856 5859 5861 5862 5865 5865 5864 5867 5869 5869 5870 5870 5873 5878 5880 5882 5883 5884 5885 5885 5886 5887 5888 5890 5891 5892 5893 5893 5893 5893 5893 5893 5892 5891 5891 5890 5889 5888 5888 5887 5887 5887 5887 5886 5886 5886 5886 5886 5885 5884 5883 5882 5880 5878 5877
5831 5837 5840 5844 5847 5849 5851 5852 5854 5857 5858 5859 5860 5861 5862 5865 5866 5867 5868 5867 5869 5873 5877 5878 5880 5881 5881 5882 5883 5884 5885 5887 5888 5890 5890 5891 5891 5891 5891 5891 5890 5889 5889 5888 5887 5887 5886 5886 5886 5886 5885 5885 5884 5884 5884 5883 5883 5882 5880 5878 5876 5874 5873
5829 5834 5836 5839 5842 5844 5845 5846 5850 5852 5854 5856 5858 5859 5861 5863 5863 5865 5866 5864 5865 5870 5873 5875 5877 5878 5878 5879 5880 5881 5882 5884 5885 5887 5887 5888 5888 5888 5889 5888 5888 5887 5887 5886 5886 5886 5885 5885 5885 5885 5884 5884 5883 5883 5882 5882 5880 5878 5876 5874 5873 5871 5870
5823 5827 5829 5832 5835 5837 5838 5841 5845 5848 5851 5854 5856 5857 5859 5859 5859 5862 5862 5861 5862 5867 5870 5872 5874 5875 5876 5877 5878 5878 5879 5881 5882 5883 5884 5885 5885 5885 5885 5885 5885 5885 5884 5884 5884 5884 5884 5884 5883 5883 5883 5882 5882 5882 5881 5880 5878 5876 5873 5871 5870 5869 5866
5815 5817 5821 5826 5831 5834 5835 5838 5841 5844 5848 5850 5852 5854 5854 5854 5856 5858 5858 5858 5861 5864 5866 5868 5870 5872 5873 5874 5875 5876 5877 5878 5879 5880 5881 5881 5881 5881 5881 5881 5882 5882 5882 5881 5881 5881 5881 5881 5880 5880 5880 5880 5880 5880 5879 5878 5876 5874 5872 5869 5868 5866 5862
5813 5816 5821 5828 5832 5833 5834 5836 5839 5841 5843 5846 5849 5849 5850 5851 5853 5854 5855 5857 5858 5860 5862 5865 5866 5868 5870 5871 5872 5873 5874 5875 5876 5877 5877 5878 5878 5878 5878 5878 5879 5879 5879 5879 5878 5878 5878 5878 5877 5877 5877 5878 5878 5878 5877 5875 5873 5872 5869 5866 5865 5862 5858
5813 5818 5823 5827 5829 5830 5832 5835 5836 5838 5840 5842 5844 5844 5846 5849 5850 5850 5852 5855 5855 5857 5859 5862 5863 5865 5867 5868 5869 5870 5871 5871 5872 5873 5874 5874 5875 5875 5875 5875 5876 5876 5876 5876 5876 5876 5875 5875 5875 5875 5875 5875 5875 5874 5874 5872 5871 5869 5865 5862 5861 5859 5856
5810 5815 5819 5823 5825 5827 5829 5831 5832 5835 5836 5838 5840 5841 5844 5846 5846 5848 5851 5852 5852 5854 5857 5858 5860 5862 5863 5864 5865 5866 5867 5868 5869 5869 5870 5871 5871 5872 5872 5872 5872 5873 5873 5873 5873 5873 5872 5872 5872 5871 5871 5871 5871 5870 5869 5868 5867 5864 5861 5858 5857 5856 5854
5806 5811 5815 5819 5821 5823 5825 5827 5829 5831 5833 5834 5837 5840 5842 5843 5843 5846 5848 5848 5849 5852 5854 5856 5857 5858 5860 5861 5861 5862 5863 5864 5865 5866 5866 5867 5868 5868 5869 5869 5869 5869 5870 5870 5870 5870 5869 5868 5868 5868 5867 5866 5866 5865 5863 5862 5861 5859 5857 5855 5854 5853 5851
5800 5806 5812 5815 5817 5819 5822 5824 5826 5828 5829 5831 5834 5836 5838 5840 5841 5843 5844 5845 5847 5850 5852 5853 5854 5855 5856 5857 5858 5859 5860 5861 5862 5863 5863 5864 5865 5864 5865 5865 5865 5866 5866 5866 5866 5866 5865 5865 5864 5864 5863 5862 5860 5859 5858 5856 5854 5853 5852 5851 5850 5849 5846
5794 5800 5806 5811 5814 5817 5817 5819 5822 5823 5825 5827 5829 5832 5834 5836 5838 5839 5840 5841 5844 5848 5849 5849 5850 5852 5853 5854 5855 5856 5856 5858 5859 5859 5860 5861 5861 5861 5861 5861 5862 5862 5862 5862 5862 5862 5862 5861 5860 5859 5857 5856 5855 5854 5853 5851 5849 5847 5846 5846 5845 5843 5841
5791 5796 5802 5808 5812 5812 5811 5813 5816 5818 5820 5823 5826 5829 5831 5832 5834 5836 5837 5839 5842 5845 5846 5846 5847 5849 5850 5852 5852 5853 5854 5854 5855 5856 5856 5856 5857 5857 5858 5858 5858 5858 5858 5858 5858 5858 5857 5856 5855 5854 5853 5852 5851 5850 5848 5846 5844 5842 5841 5841 5840 5838 5836
5789 5793 5799 5804 5806 5804 5805 5809 5813 5814 5816 5819 5822 5824 5825 5828 5830 5832 5834 5836 5839 5841 5842 5843 5845 5846 5847 5848 5849 5850 5850 5851 5851 5852 5852 5853 5854 5854 5854 5855 5855 5855 5854 5854 5854 5853 5852 5852 5851 5850 5849 5848 5847 5845 5843 5841 5839 5838 5837 5837 5836 5834 5832
5788 5791 5794 5798 5798 5799 5802 5806 5808 5810 5812 5814 5816 5818 5820 5823 5826 5829 5831 5832 5834 5837 5839 5841 5842 5843 5843 5845 5845 5846 5846 5847 5848 5848 5849 5850 5851 5851 5851 5851 5851 5851 5850 5850 5849 5848 5847 5847 5846 5845 5844 5843 5842 5841 5839 5838 5836 5834 5833 5833 5832 5829 5827
5784 5787 5790 5792 5793 5796 5799 5800 5801 5804 5806 5809 5811 5814 5816 5818 5821 5824 5827 5828 5830 5833 5835 5837 5838 5839 5839 5841 5841 5842 5843 5844 5845 5845 5846 5847 5847 5847 5847 5847 5847 5846 5846 5846 5845 5843 5843 5842 5841 5840 5840 5840 5839 5837 5836 5834 5832 5831 5829 5828 5827 5826 5823
5781 5784 5786 5788 5790 5792 5792 5793 5795 5798 5800 5803 5806 5809 5811 5813 5817 5820 5823 5825 5827 5829 5831 5832 5834 5835 5836 5837 5838 5839 5840 5841 5841 5842 5842 5843 5843 5843 5843 5842 5842 5841 5841 5841 5840 5839 5839 5839 5838 5837 5836 5835 5835 5834 5832 5830 5828 5827 5825 5824 5822 5821 5819
5779 5782 5783 5784 5786 5786 5786 5788 5791 5793 5795 5798 5802 5805 5807 5808 5811 5815 5818 5821 5823 5825 5826 5827 5829 5831 5833 5834 5835 5836 5837 5837 5838 5838 5838 5838 5838 5838 5837 5837 5836 5836 5836 5836 5835 5835 5835 5835 5835 5834 5832 5831 5830 5829 5827 5825 5824 5822 5821 5819 5818 5816 5814
5775 5779 5781 5782 5782 5782 5783 5785 5787 5789 5791 5793 5799 5803 5803 5805 5807 5810 5812 5815 5817 5820 5822 5823 5825 5828 5829 5830 5831 5832 5833 5834 5834 5834 5834 5834 5833 5833 5832 5832 5832 5831 5831 5831 5831 5832 5832 5831 5830 5830 5828 5827 5825 5824 5822 5820 5819 5817 5815 5814 5813 5811 5809
5771 5775 5777 5779 5780 5779 5780 5782 5784 5786 5787 5790 5796 5799 5800 5804 5808 5808 5810 5812 5813 5815 5818 5820 5822 5824 5826 5827 5827 5828 5829 5829 5830 5830 5829 5828 5828 5828 5827 5827 5827 5827 5827 5827 5827 5828 5827 5827 5826 5825 5824 5822 5820 5819 5817 5815 5813 5811 5810 5809 5808 5806 5804
5767 5770 5773 5776 5777 5777 5778 5780 5782 5783 5785 5790 5794 5796 5798 5802 5805 5806 5808 5810 5810 5812 5815 5816 5818 5819 5821 5822 5823 5823 5824 5825 5825 5825 5824 5823 5823 5823 5823 5822 5822 5822 5823 5823 5823 5823 5822 5822 5821 5820 5818 5817 5815 5814 5812 5810 5808 5807 5805 5804 5803 5802 5800
5762 5765 5768 5771 5773 5774 5775 5778 5779 5781 5785 5788 5790 5792 5795 5799 5801 5802 5804 5806 5807 5809 5810 5811 5813 5814 5816 5817 5818 5818 5819 5820 5820 5820 5819 5818 5818 5818 5818 5817 5817 5818 5818 5818 5818 5817 5817 5816 5815 5814 5813 5812 5811 5809 5807 5806 5804 5802 5801 5799 5798 5797 5795
5758 5761 5763 5766 5769 5770 5772 5775 5777 5780 5783 5785 5787 5789 5792 5795 5797 5798 5800 5802 5803 5804 5805 5806 5807 5809 5810 5812 5812 5812 5813 5814 5814 5815 5814 5814 5813 5813 5813 5812 5812 5813 5813 5813 5813 5812 5812 5811 5810 5809 5808 5807 5806 5804 5803 5802 5800 5798 5796 5794 5793 5791 5789
5753 5756 5759 5762 5765 5767 5769 5772 5775 5777 5779 5781 5784 5786 5788 5790 5793 5794 5795 5797 5798 5799 5800 5801 5802 5803 5804 5806 5806 5807 5808 5808 5809 5809 5809 5809 5809 5809 5809 5808 5807 5807 5807 5807 5807 5806 5806 5805 5804 5804 5803 5802 5801 5800 5798 5797 5795 5793 5791 5790 5788 5785 5783
5747 5751 5755 5759 5761 5764 5766 5769 5771 5774 5775 5777 5780 5781 5783 5785 5788 5789 5790 5791 5792 5794 5795 5795 5796 5798 5799 5800 5801 5802 5802 5803 5803 5803 5803 5804 5804 5804 5804 5803 5802 5801 5801 5801 5801 5800 5800 5799 5798 5798 5798 5797 5796 5795 5793 5791 5790 5788 5786 5784 5782 5780 5778
5744 5748 5751 5754 5757 5759 5762 5764 5767 5769 5771 5773 5774 5776 5778 5780 5782 5783 5785 5786 5787 5789 5789 5790 5791 5792 5794 5795 5796 5796 5796 5797 5797 5797 5797 5797 5797 5797 5797 5797 5796 5795 5795 5795 5795 5794 5794 5793 5792 5792 5792 5792 5791 5789 5787 5786 5784 5782 5780 5779 5777 5775 5773
5744 5746 5748 5750 5753 5755 5757 5760 5762 5765 5767 5768 5769 5770 5772 5775 5776 5778 5779 5781 5782 5783 5784 5785 5786 5786 5788 5789 5790 5790 5792 5793 5793 5792 5792 5791 5790 5790 5791 5791 5790 5790 5789 5789 5789 5788 5788 5787 5787 5787 5786 5785 5784 5783 5781 5780 5778 5776 5774 5773 5771 5770 5769
5740 5742 5744 5747 5749 5751 5753 5756 5758 5760 5762 5763 5764 5765 5767 5769 5771 5773 5775 5775 5776 5778 5778 5779 5780 5781 5782 5784 5784 5785 5787 5788 5788 5787 5786 5785 5785 5785 5785 5785 5784 5784 5784 5783 5783 5783 5783 5782 5782 5781 5780 5779 5778 5777 5775 5774 5773 5771 5768 5767 5766 5765 5763
5736 5738 5741 5744 5746 5747 5749 5750 5753 5754 5755 5757 5759 5760 5762 5764 5766 5768 5769 5770 5772 5773 5773 5773 5774 5775 5777 5778 5779 5780 5780 5781 5781 5781 5780 5780 5780 5780 5779 5779 5778 5778 5778 5778 5778 5778 5778 5778 5777 5776 5775 5773 5773 5772 5770 5769 5767 5765 5762 5760 5760 5759 5757
5732 5734 5736 5739 5742 5743 5745 5746 5748 5749 5751 5753 5754 5756 5758 5760 5762 5763 5764 5765 5767 5767 5767 5768 5769 5770 5771 5772 5773 5773 5774 5775 5775 5775 5774 5774 5775 5775 5774 5774 5773 5773 5774 5773 5773 5773 5773 5773 5772 5770 5769 5768 5768 5767 5765 5764 5762 5759 5756 5755 5755 5754 5753
5728 5730 5732 5735 5737 5740 5741 5743 5745 5746 5747 5749 5751 5752 5754 5756 5757 5758 5760 5761 5762 5762 5763 5765 5765 5765 5765 5766 5767 5767 5768 5768 5768 5768 5769 5769 5769 5769 5769 5769 5769 5769 5769 5768 5768 5767 5768 5767 5766 5765 5764 5764 5763 5761 5760 5759 5756 5753 5751 5751 5751 5750 5750
5722 5725 5728 5731 5734 5736 5738 5740 5741 5743 5745 5747 5748 5749 5751 5752 5753 5754 5756 5756 5757 5757 5759 5760 5761 5760 5760 5761 5761 5761 5761 5762 5762 5762 5763 5763 5764 5764 5763 5763 5764 5764 5764 5763 5762 5762 5762 5762 5761 5760 5759 5758 5756 5755 5753 5752 5750 5748 5747 5746 5745 5744 5744
5718 5720 5723 5727 5730 5733 5735 5737 5738 5740 5742 5743 5745 5745 5746 5747 5749 5750 5750 5751 5752 5752 5753 5755 5756 5756 5756 5756 5756 5756 5757 5757 5757 5758 5758 5759 5759 5758 5758 5758 5758 5759 5759 5758 5757 5756 5756 5756 5755 5755 5753 5751 5750 5748 5747 5746 5745 5743 5742 5740 5738 5737 5737